GW6323 Weather Reports


time (UTC)temp
C
wind
direction
speed
KPH
gust
KPH
rain 1hr
cm
rain 24hr
cm
rain mn
cm
humidity
%
barometer
mb
20260505171548 27 67 0.0 9.7 0.00 0.00 0.00 44 1017.9
20260505171033 27 57 3.2 9.7 0.00 0.00 0.00 44 1018.0
20260505170532 27 46 1.6 6.4 0.00 0.00 0.00 43 1018.0
20260505170043 27 0 1.6 6.4 0.00 0.00 0.00 46 1018.1
20260505165530 27 0 0.0 6.4 0.00 0.00 0.00 45 1018.0
20260505165030 27 55 1.6 6.4 0.00 0.00 0.00 45 1018.0
20260505164545 27 57 1.6 6.4 0.00 0.00 0.00 43 1018.0
20260505164031 27 59 1.6 9.7 0.00 0.00 0.00 43 1018.0
20260505163528 27 40 0.0 9.7 0.00 0.00 0.00 44 1018.0
20260505163041 27 35 1.6 8.0 0.00 0.00 0.00 44 1018.1
20260505162530 26 36 1.6 8.0 0.00 0.00 0.00 46 1018.0
20260505162033 26 35 1.6 8.0 0.00 0.00 0.00 44 1018.2
20260505161544 26 35 1.6 8.0 0.00 0.00 0.00 44 1018.1
20260505161031 26 116 1.6 6.4 0.00 0.00 0.00 54 1018.1
20260505160532 26 0 0.0 6.4 0.00 0.00 0.00 45 1018.0
20260505153047 26 58 1.6 6.4 0.00 0.00 0.00 46 1018.1
20260505152533 26 44 1.6 6.4 0.00 0.00 0.00 47 1018.0
20260505152036 25 55 1.6 4.8 0.00 0.00 0.00 47 1018.0
20260505151540 25 54 1.6 4.8 0.00 0.00 0.00 48 1017.9
20260505151033 25 54 1.6 4.8 0.00 0.00 0.00 50 1017.9
20260505150530 25 54 1.6 6.4 0.00 0.00 0.00 50 1018.0
20260505140532 23 49 0.0 3.2 0.00 0.00 0.00 57 1017.7
20260505125032 18 0 0.0 0.0 0.00 0.00 0.00 81 1017.3
20260505124540 18 0 0.0 0.0 0.00 0.00 0.00 82 1017.2
20260505124031 18 0 0.0 0.0 0.00 0.00 0.00 84 1017.3
20260505123533 17 0 0.0 0.0 0.00 0.00 0.00 84 1017.4
20260505123048 17 0 0.0 0.0 0.00 0.00 0.00 85 1017.3
20260505122532 17 0 0.0 0.0 0.00 0.00 0.00 85 1017.4
20260505122032 17 0 0.0 0.0 0.00 0.00 0.00 85 1017.2
20260505121537 16 0 0.0 0.0 0.00 0.00 0.00 85 1017.1
20260505121038 16 0 0.0 0.0 0.00 0.00 0.00 85 1017.0
20260505120532 16 0 0.0 0.0 0.00 0.00 0.00 85 1016.8
20260505120052 15 0 0.0 0.0 0.00 0.00 0.00 84 1016.8
20260505115531 15 0 0.0 0.0 0.00 0.00 0.00 84 1016.9
20260505115034 15 0 0.0 0.0 0.00 0.00 0.00 84 1016.9
20260505114543 15 0 0.0 0.0 0.00 0.00 0.00 84 1017.0
20260505114033 15 0 0.0 0.0 0.00 0.00 0.00 84 1017.0
20260505113557 15 0 0.0 0.0 0.00 0.00 0.00 84 1016.8
20260505113040 15 0 0.0 0.0 0.00 0.00 0.00 84 1016.8
20260505112531 14 0 0.0 0.0 0.00 0.00 0.00 84 1016.7
20260505112033 14 0 0.0 0.0 0.00 0.00 0.00 84 1016.6
20260505111546 14 0 0.0 0.0 0.00 0.00 0.00 83 1016.7
20260505111033 14 0 0.0 0.0 0.00 0.00 0.00 83 1016.6
20260505110532 14 0 0.0 0.0 0.00 0.00 0.00 83 1016.5
20260505102032 14 0 0.0 0.0 0.00 0.00 0.00 82 1016.1
20260505101540 14 0 0.0 0.0 0.00 0.00 0.00 82 1016.0
20260505101036 14 0 0.0 0.0 0.00 0.00 0.00 82 1016.1
20260505100531 14 0 0.0 0.0 0.00 0.00 0.00 82 1016.0
20260505100045 14 0 0.0 0.0 0.00 0.00 0.00 82 1016.0
20260505095531 14 0 0.0 0.0 0.00 0.00 0.00 82 1016.0
20260505095033 14 0 0.0 0.0 0.00 0.00 0.00 82 1015.9
20260505094548 14 0 0.0 0.0 0.00 0.00 0.00 82 1015.9
20260505094029 15 0 0.0 0.0 0.00 0.00 0.00 82 1015.8
20260505093533 15 0 0.0 0.0 0.00 0.00 0.00 82 1015.8
20260505093045 15 0 0.0 0.0 0.00 0.00 0.00 82 1015.8
20260505092532 15 0 0.0 0.0 0.00 0.00 0.00 82 1015.7
20260505092032 15 0 0.0 0.0 0.00 0.00 0.00 82 1015.7
20260505091551 15 0 0.0 0.0 0.00 0.00 0.00 81 1015.6
20260505091033 15 0 0.0 0.0 0.00 0.00 0.00 81 1015.7
20260505090531 15 0 0.0 0.0 0.00 0.00 0.00 81 1015.7
20260505090041 15 0 0.0 0.0 0.00 0.00 0.00 81 1015.8
20260505085532 15 0 0.0 0.0 0.00 0.00 0.00 81 1015.8
20260505085031 15 0 0.0 0.0 0.00 0.00 0.00 81 1015.7
20260505084602 15 0 0.0 0.0 0.00 0.00 0.00 81 1015.7
20260505084030 15 0 0.0 0.0 0.00 0.00 0.00 81 1015.7
20260505083530 15 0 0.0 0.0 0.00 0.00 0.00 81 1015.8
20260505083102 15 0 0.0 0.0 0.00 0.00 0.00 80 1015.8
20260505082534 15 0 0.0 0.0 0.00 0.00 0.00 80 1015.6
20260505082031 15 0 0.0 0.0 0.00 0.00 0.00 80 1015.5
20260505081557 15 0 0.0 0.0 0.00 0.00 0.00 80 1015.5
20260505081032 15 0 0.0 0.0 0.00 0.00 0.00 80 1015.6
20260505080532 15 0 0.0 0.0 0.00 0.00 0.00 80 1015.8
20260505080055 15 0 0.0 0.0 0.00 0.00 0.00 79 1015.7
20260505075531 15 0 0.0 0.0 0.00 0.00 0.00 79 1015.7
20260505075030 15 0 0.0 0.0 0.00 0.00 0.00 79 1015.8
20260505074541 15 0 0.0 0.0 0.00 0.00 0.00 78 1015.7
20260505074030 15 0 0.0 0.0 0.00 0.00 0.00 78 1015.8
20260505073530 15 0 0.0 0.0 0.00 0.00 0.00 78 1015.8
20260505073050 15 0 0.0 0.0 0.00 0.00 0.00 78 1015.7
20260505072532 15 0 0.0 0.0 0.00 0.00 0.00 78 1015.9
20260505072031 15 0 0.0 0.0 0.00 0.00 0.00 78 1015.8
20260505071548 15 0 0.0 0.0 0.00 0.00 0.00 78 1016.0
20260505071032 16 0 0.0 0.0 0.00 0.00 0.00 77 1015.9
20260505070535 16 0 0.0 0.0 0.00 0.00 0.00 76 1015.8
20260505070051 16 0 0.0 0.0 0.00 0.00 0.00 77 1015.9
20260505065531 16 0 0.0 0.0 0.00 0.00 0.00 76 1015.8
20260505065031 16 0 0.0 0.0 0.00 0.00 0.00 75 1015.8
20260505064542 16 0 0.0 0.0 0.00 0.00 0.00 75 1016.0
20260505064033 16 0 0.0 0.0 0.00 0.00 0.00 75 1015.9
20260505063535 16 0 0.0 0.0 0.00 0.00 0.00 74 1015.9
20260505063049 16 0 0.0 0.0 0.00 0.00 0.00 74 1016.0
20260505062530 16 0 0.0 0.0 0.00 0.00 0.00 73 1016.1
20260505062030 16 0 0.0 0.0 0.00 0.00 0.00 73 1016.1
20260505061541 17 0 0.0 0.0 0.00 0.00 0.00 72 1016.2
20260505061031 17 0 0.0 0.0 0.00 0.00 0.00 72 1016.3
20260505060536 17 0 0.0 0.0 0.00 0.00 0.00 71 1016.3
20260505060055 17 0 0.0 0.0 0.00 0.00 0.00 70 1016.2
20260505055532 17 0 0.0 0.0 0.00 0.00 0.00 70 1016.4
20260505055031 17 0 0.0 0.0 0.00 0.00 0.00 69 1016.4
20260505054537 17 0 0.0 0.0 0.00 0.00 0.00 69 1016.5
20260505054035 17 0 0.0 0.0 0.00 0.00 0.00 68 1016.5
20260505053531 18 0 0.0 0.0 0.00 0.00 0.00 67 1016.5
20260505053044 18 0 0.0 0.0 0.00 0.00 0.00 66 1016.6
20260505052534 18 0 0.0 0.0 0.00 0.00 0.00 66 1016.7
20260505052036 18 0 0.0 0.0 0.00 0.00 0.00 65 1016.9
20260505051543 18 0 0.0 0.0 0.00 0.00 0.00 65 1017.0
20260505051035 18 0 0.0 0.0 0.00 0.00 0.00 64 1017.0
20260505050534 19 0 0.0 0.0 0.00 0.00 0.00 63 1017.0
20260505041553 20 0 0.0 0.0 0.00 0.00 0.00 59 1017.3
20260505041034 20 0 0.0 1.6 0.00 0.00 0.00 59 1017.2
20260505040536 20 0 0.0 3.2 0.00 0.00 0.00 60 1017.1
20260505040048 20 0 0.0 3.2 0.00 0.00 0.00 60 1017.2
20260505035535 20 47 0.0 3.2 0.00 0.00 0.00 59 1017.2
20260505035037 20 47 0.0 3.2 0.00 0.00 0.00 59 1017.2
20260505034543 20 47 1.6 3.2 0.00 0.00 0.00 59 1017.2
20260505034034 20 47 0.0 3.2 0.00 0.00 0.00 59 1017.2
20260505033534 20 47 0.0 3.2 0.00 0.00 0.00 59 1017.3
20260505033044 20 0 0.0 3.2 0.00 0.00 0.00 59 1017.3
20260505032534 20 0 0.0 3.2 0.00 0.00 0.00 59 1017.3
20260505032036 20 0 0.0 4.8 0.00 0.00 0.00 58 1017.3
20260505031544 20 0 0.0 4.8 0.00 0.00 0.00 58 1017.3
20260505031031 20 0 1.6 4.8 0.00 0.00 0.00 58 1017.4
20260505030537 20 47 0.0 3.2 0.00 0.00 0.00 59 1017.4
20260505030056 20 0 0.0 3.2 0.00 0.00 0.00 58 1017.4
20260505025535 20 0 0.0 3.2 0.00 0.00 0.00 59 1017.4
20260505025035 20 47 0.0 3.2 0.00 0.00 0.00 59 1017.4
20260505024548 20 47 0.0 4.8 0.00 0.00 0.00 59 1017.4
20260505024034 20 47 0.0 4.8 0.00 0.00 0.00 58 1017.4
20260505023534 20 47 1.6 3.2 0.00 0.00 0.00 58 1017.4
20260505023041 20 0 0.0 4.8 0.00 0.00 0.00 58 1017.4
20260505022531 20 47 0.0 4.8 0.00 0.00 0.00 59 1017.4
20260505022033 20 47 0.0 3.2 0.00 0.00 0.00 59 1017.4
20260505021543 20 0 0.0 4.8 0.00 0.00 0.00 59 1017.4
20260505021033 20 47 0.0 4.8 0.00 0.00 0.00 59 1017.4
20260505020533 20 47 0.0 4.8 0.00 0.00 0.00 59 1017.5
20260505020040 20 47 0.0 3.2 0.00 0.00 0.00 59 1017.4
20260505015535 20 47 0.0 3.2 0.00 0.00 0.00 59 1017.4
20260505015035 20 47 0.0 4.8 0.00 0.00 0.00 59 1017.4
20260505014602 20 47 0.0 4.8 0.00 0.00 0.00 59 1017.3
20260505014034 20 47 1.6 4.8 0.00 0.00 0.00 60 1017.2
20260505013534 20 47 0.0 3.2 0.00 0.00 0.00 59 1017.3
20260505013050 20 47 0.0 3.2 0.00 0.00 0.00 59 1017.3
20260505012531 20 47 0.0 3.2 0.00 0.00 0.00 59 1017.2
20260505012031 20 47 0.0 3.2 0.00 0.00 0.00 59 1017.2
20260505011543 20 47 0.0 4.8 0.00 0.00 0.00 59 1017.1
20260505011038 20 0 1.6 4.8 0.00 0.00 0.00 59 1017.0
20260505010535 20 47 0.0 4.8 0.00 0.00 0.00 59 1017.1
20260505010051 20 47 1.6 6.4 0.00 0.00 0.00 59 1017.0
20260505005534 20 47 0.0 6.4 0.00 0.00 0.00 58 1016.9
20260505005035 21 0 0.0 4.8 0.00 0.00 0.00 58 1017.0
20260505004546 21 0 0.0 4.8 0.00 0.00 0.00 58 1016.9
20260505004033 21 47 1.6 4.8 0.00 0.00 0.00 58 1016.9
20260505003534 21 47 0.0 3.2 0.00 0.00 0.00 58 1016.9
20260505003054 21 47 0.0 3.2 0.00 0.00 0.00 57 1017.0
20260505002534 21 47 0.0 4.8 0.00 0.00 0.00 57 1016.9
20260505002034 21 47 1.6 4.8 0.00 0.00 0.00 57 1016.8
20260505001543 21 0 0.0 3.2 0.00 0.00 0.00 57 1016.9
20260505001034 21 0 0.0 3.2 0.00 0.00 0.00 56 1016.8
20260505000534 21 47 1.6 4.8 0.00 0.00 0.00 55 1016.8
20260505000040 21 0 0.0 4.8 0.00 0.00 0.00 55 1016.7
20260504235534 21 47 1.6 6.4 0.00 0.00 0.00 55 1016.5
20260504235035 22 47 1.6 6.4 0.00 0.00 0.00 55 1016.5
20260504234538 22 47 1.6 4.8 0.00 0.00 0.00 54 1016.6
20260504234035 22 76 1.6 4.8 0.00 0.00 0.00 54 1016.6
20260504233531 22 76 1.6 4.8 0.00 0.00 0.00 54 1016.6
20260504233042 22 59 0.0 4.8 0.00 0.00 0.00 54 1016.5
20260504232535 22 59 1.6 4.8 0.00 0.00 0.00 53 1016.3
20260504232030 22 59 1.6 6.4 0.00 0.00 0.00 53 1016.2
20260504231537 22 0 1.6 6.4 0.00 0.00 0.00 53 1016.2
20260504231029 22 57 1.6 6.4 0.00 0.00 0.00 52 1016.3
20260504230531 22 57 1.6 6.4 0.00 0.00 0.00 52 1016.3
20260504230035 23 67 3.2 6.4 0.00 0.00 0.00 51 1016.1
20260504225532 23 67 1.6 8.0 0.00 0.00 0.00 50 1016.2
20260504225030 23 61 1.6 8.0 0.00 0.00 0.00 50 1016.4
20260504224541 23 60 1.6 6.4 0.00 0.00 0.00 50 1016.5
20260504224030 23 63 1.6 6.4 0.00 0.00 0.00 49 1016.5
20260504223530 23 63 1.6 6.4 0.00 0.00 0.00 49 1016.4
20260504223055 24 62 3.2 6.4 0.00 0.00 0.00 48 1016.5
20260504222530 24 63 1.6 6.4 0.00 0.00 0.00 47 1016.7
20260504222029 24 63 1.6 6.4 0.00 0.00 0.00 47 1016.7
20260504221537 25 63 1.6 6.4 0.00 0.00 0.00 46 1016.7
20260504221030 25 71 1.6 6.4 0.00 0.00 0.00 45 1016.6
20260504220530 25 53 1.6 8.0 0.00 0.00 0.00 44 1016.7
20260504220036 26 0 1.6 8.0 0.00 0.00 0.00 44 1016.5
20260504215529 26 57 1.6 6.4 0.00 0.00 0.00 44 1016.5
20260504215036 26 53 1.6 4.8 0.00 0.00 0.00 44 1016.4
20260504214537 26 43 1.6 8.0 0.00 0.00 0.00 44 1016.5
20260504214033 26 42 1.6 8.0 0.00 0.00 0.00 42 1016.6
20260504213530 26 67 1.6 6.4 0.00 0.00 0.00 42 1016.6
20260504213043 26 67 3.2 8.0 0.00 0.00 0.00 43 1016.6
20260504212530 26 59 3.2 8.0 0.00 0.00 0.00 44 1016.5
20260504212031 26 44 1.6 6.4 0.00 0.00 0.00 44 1016.5
20260504211604 26 59 3.2 6.4 0.00 0.00 0.00 46 1016.6
20260504211030 25 63 1.6 8.0 0.00 0.00 0.00 46 1016.6
20260504210533 25 147 3.2 8.0 0.00 0.00 0.00 48 1016.6
20260504210043 25 71 3.2 8.0 0.00 0.00 0.00 49 1016.6
20260504205530 25 76 1.6 8.0 0.00 0.00 0.00 48 1016.8
20260504205032 25 150 1.6 8.0 0.00 0.00 0.00 47 1016.8
20260504204535 25 43 3.2 8.0 0.00 0.00 0.00 49 1016.8
20260504204033 25 51 1.6 6.4 0.00 0.00 0.00 47 1016.7
20260504203530 25 78 3.2 6.4 0.00 0.00 0.00 46 1016.7
20260504203044 25 63 1.6 6.4 0.00 0.00 0.00 46 1016.7
20260504202530 26 97 1.6 9.7 0.00 0.00 0.00 44 1016.7
20260504202030 26 0 1.6 12.9 0.00 0.00 0.00 44 1016.7
20260504201542 26 34 4.8 12.9 0.00 0.00 0.00 53 1016.6
20260504201030 27 45 1.6 8.0 0.00 0.00 0.00 43 1016.7
20260504200531 27 0 1.6 8.0 0.00 0.00 0.00 42 1016.8
20260504200040 27 40 1.6 12.9 0.00 0.00 0.00 42 1016.9
20260504195531 27 31 4.8 12.9 0.00 0.00 0.00 40 1017.0
20260504195031 27 38 1.6 9.7 0.00 0.00 0.00 40 1017.1
20260504194550 27 35 1.6 9.7 0.00 0.00 0.00 42 1017.0
20260504194033 27 35 3.2 9.7 0.00 0.00 0.00 50 1017.1
20260504193531 27 39 1.6 6.4 0.00 0.00 0.00 41 1017.1
20260504193044 27 37 1.6 12.9 0.00 0.00 0.00 41 1017.2
20260504192531 27 37 3.2 12.9 0.00 0.00 0.00 41 1017.3
20260504192032 27 43 3.2 8.0 0.00 0.00 0.00 39 1017.4
20260504191558 27 34 3.2 6.4 0.00 0.00 0.00 38 1017.4
20260504191032 27 37 1.6 9.7 0.00 0.00 0.00 48 1017.4
20260504190530 27 37 3.2 9.7 0.00 0.00 0.00 48 1017.6
20260504190048 27 40 1.6 6.4 0.00 0.00 0.00 39 1017.7
20260504185532 27 40 1.6 6.4 0.00 0.00 0.00 40 1017.7
20260504185031 27 40 1.6 6.4 0.00 0.00 0.00 40 1017.8
20260504184548 26 38 1.6 6.4 0.00 0.00 0.00 40 1017.9
20260504184031 26 37 1.6 12.9 0.00 0.00 0.00 41 1018.0
20260504183531 26 22 4.8 12.9 0.00 0.00 0.00 38 1018.0
20260504183036 26 53 1.6 8.0 0.00 0.00 0.00 49 1018.0
20260504182530 26 45 1.6 8.0 0.00 0.00 0.00 39 1018.1
20260504182032 26 47 3.2 8.0 0.00 0.00 0.00 38 1018.1
20260504181542 26 126 1.6 6.4 0.00 0.00 0.00 37 1018.0
20260504181033 26 38 1.6 8.0 0.00 0.00 0.00 40 1018.0
20260504180530 26 49 1.6 8.0 0.00 0.00 0.00 39 1018.0
20260504180035 26 0 1.6 12.9 0.00 0.00 0.00 39 1018.1
20260504175530 26 46 3.2 12.9 0.00 0.00 0.00 39 1018.2
20260504175031 26 30 3.2 14.5 0.00 0.00 0.00 39 1018.1
20260504174544 26 32 3.2 14.5 0.00 0.00 0.00 39 1018.2
20260504174031 26 0 1.6 8.0 0.00 0.00 0.00 38 1018.4
20260504173530 26 5 1.6 8.0 0.00 0.00 0.00 38 1018.5
20260504173037 26 36 1.6 8.0 0.00 0.00 0.00 40 1018.5
20260504172532 26 0 3.2 8.0 0.00 0.00 0.00 40 1018.6
20260504172035 26 36 3.2 12.9 0.00 0.00 0.00 38 1018.6